TimeCEST,TemperatureF,Dew PointF,Humidity,Sea Level PressureIn,VisibilityMPH,Wind Direction,Wind SpeedMPH,Gust SpeedMPH,PrecipitationIn,Events,Conditions,WindDirDegrees,DateUTC
12:00 AM,69.8,60.8,73,30.27,-9999.0,NNW,9.2,-,N/A,,Clear,330,2013-07-06 22:00:00
5:30 AM,60.8,53.6,77,30.24,-9999.0,Calm,Calm,-,N/A,,Clear,0,2013-07-07 03:30:00
6:00 AM,57.2,53.6,88,30.24,-9999.0,Calm,Calm,-,N/A,,Clear,0,2013-07-07 04:00:00
6:30 AM,59.0,53.6,82,30.24,-9999.0,Calm,Calm,-,N/A,,Clear,0,2013-07-07 04:30:00
7:00 AM,57.2,53.6,88,30.24,-9999.0,Variable,1.2,-,N/A,,Clear,0,2013-07-07 05:00:00
7:30 AM,59.0,55.4,88,30.24,-9999.0,South,1.2,-,N/A,,Clear,180,2013-07-07 05:30:00
8:00 AM,62.6,55.4,77,30.24,-9999.0,Calm,Calm,-,N/A,,Clear,0,2013-07-07 06:00:00
8:30 AM,66.2,57.2,73,30.27,-9999.0,Calm,Calm,-,N/A,,Clear,0,2013-07-07 06:30:00
9:00 AM,68.0,57.2,68,30.27,-9999.0,Calm,Calm,-,N/A,,Clear,0,2013-07-07 07:00:00
9:30 AM,69.8,57.2,64,30.27,-9999.0,Calm,Calm,-,N/A,,Clear,0,2013-07-07 07:30:00
10:00 AM,71.6,57.2,60,30.27,-9999.0,Variable,1.2,-,N/A,,Clear,0,2013-07-07 08:00:00
10:30 AM,73.4,59.0,61,30.27,-9999.0,North,1.2,-,N/A,,Clear,350,2013-07-07 08:30:00
11:00 AM,75.2,59.0,57,30.24,-9999.0,NNW,2.3,-,N/A,,Clear,340,2013-07-07 09:00:00
11:30 AM,78.8,62.6,57,30.24,-9999.0,Variable,2.3,-,N/A,,Clear,0,2013-07-07 09:30:00
12:00 PM,82.4,62.6,51,30.24,-9999.0,WNW,2.3,-,N/A,,Clear,300,2013-07-07 10:00:00
12:30 PM,82.4,64.4,54,30.24,-9999.0,WNW,4.6,-,N/A,,Clear,300,2013-07-07 10:30:00
1:00 PM,82.4,62.6,51,30.24,-9999.0,NW,10.4,-,N/A,,Clear,310,2013-07-07 11:00:00
1:30 PM,84.2,62.6,48,30.21,-9999.0,NW,10.4,-,N/A,,Clear,310,2013-07-07 11:30:00
2:00 PM,84.2,62.6,48,30.21,-9999.0,NW,10.4,-,N/A,,Clear,320,2013-07-07 12:00:00
2:30 PM,84.2,62.6,48,30.21,-9999.0,NW,13.8,-,N/A,,Clear,310,2013-07-07 12:30:00
3:00 PM,86.0,62.6,45,30.21,6.2,NNW,11.5,-,N/A,,Partly Cloudy,330,2013-07-07 13:00:00
3:30 PM,86.0,62.6,45,30.21,6.2,NW,13.8,-,N/A,,Partly Cloudy,320,2013-07-07 13:30:00
4:00 PM,84.2,64.4,51,30.18,6.2,NNW,15.0,-,N/A,,Partly Cloudy,330,2013-07-07 14:00:00
4:30 PM,84.2,60.8,45,30.18,6.2,NW,16.1,-,N/A,,Partly Cloudy,320,2013-07-07 14:30:00
5:00 PM,84.2,62.6,48,30.18,6.2,NW,15.0,-,N/A,,Partly Cloudy,320,2013-07-07 15:00:00
5:30 PM,84.2,62.6,48,30.18,6.2,NW,17.3,-,N/A,,Partly Cloudy,320,2013-07-07 15:30:00
6:00 PM,82.4,64.4,54,30.18,6.2,NNW,15.0,-,N/A,,Partly Cloudy,330,2013-07-07 16:00:00
6:30 PM,82.4,64.4,54,30.18,6.2,NW,15.0,-,N/A,,Partly Cloudy,320,2013-07-07 16:30:00
7:00 PM,80.6,64.4,58,30.18,6.2,NW,17.3,-,N/A,,Partly Cloudy,320,2013-07-07 17:00:00
7:30 PM,80.6,62.6,54,30.18,6.2,NW,17.3,-,N/A,,Partly Cloudy,320,2013-07-07 17:30:00
8:00 PM,78.8,62.6,57,30.18,6.2,NNW,13.8,-,N/A,,Partly Cloudy,330,2013-07-07 18:00:00
8:30 PM,77.0,62.6,61,30.18,6.2,NW,16.1,-,N/A,,Partly Cloudy,320,2013-07-07 18:30:00
9:00 PM,75.2,60.8,61,30.21,6.2,NNW,15.0,-,N/A,,Partly Cloudy,330,2013-07-07 19:00:00
9:30 PM,75.2,60.8,61,30.21,6.2,NNW,15.0,-,N/A,,Partly Cloudy,330,2013-07-07 19:30:00
10:00 PM,73.4,59.0,61,30.21,6.2,NNW,11.5,-,N/A,,Partly Cloudy,330,2013-07-07 20:00:00
10:30 PM,71.6,59.0,64,30.21,6.2,NNW,12.7,-,N/A,,Partly Cloudy,330,2013-07-07 20:30:00
11:00 PM,71.6,59.0,64,30.21,6.2,NW,11.5,-,N/A,,Partly Cloudy,320,2013-07-07 21:00:00
11:30 PM,69.8,59.0,68,30.21,6.2,NW,10.4,-,N/A,,Partly Cloudy,320,2013-07-07 21:30:00